Regional Weather Roundup
Issued by NWS

Home | Current Version | Previous Version | Text Only | Print | Product List | Glossary On
Versions: 1 2 3 4 5 6 7 8 9 10 11 12 13 14 15 16 17 18 19 20 21 22 23 24 25 26 27 28 29 30 31 32 33 34 35 36 37 38 39 40 41 42 43 44 45 46 47 48 49 50
000
ASUS45 KSLC 301510
RWRUT

UTAH REGIONAL WEATHER ROUNDUP
NATIONAL WEATHER SERVICE SALT LAKE CITY UT
900 AM MDT TUE JUN 30 2015

UTZ001>011-023>025-301600-

NORTHERN UTAH

CITY           SKY/WX    TMP DP  RH WIND       PRES   REMARKS
BRIGHAM CITY   SUNNY     81  54  38 N6        30.09R
HILL AFB       MOSUNNY   76  52  42 SE15G22   30.12S
LOGAN          SUNNY     74  58  57 NW5       30.11F
OGDEN          MOSUNNY   79  52  38 S10       30.09S
PROVO AIRPORT  PTSUNNY   81  52  36 S6        30.12F
SALT LAKE CITY PTSUNNY   85  54  34 SE9       30.07S
VERNAL         MOSUNNY   77  44  30 E3        30.17S
WENDOVER       SUNNY     90  45  20 CALM      30.09F
HEBER CITY     MOSUNNY   70  46  43 CALM      30.23F
WEST JORDAN    SUNNY     82  54  36 SE7       30.12R

$$

UTZ012>022-026-027-301600-

SOUTHERN/CENTRAL UTAH

CITY           SKY/WX    TMP DP  RH WIND       PRES   REMARKS
BLANDING       SUNNY     77  46  34 SW3       30.31R
BRYCE CANYON   SUNNY     75  49  39 N5        30.38S
CEDAR CITY     SUNNY     80  49  33 CALM      30.21F
DELTA          PTSUNNY   82  44  26 MISG      30.13S
HANKSVILLE     MOSUNNY   86  41  20 CALM      30.10R
MILFORD        MOSUNNY   78  49  35 S13       30.16S
MOAB/CYNLANDS  SUNNY     87  45  23 E9        30.08S
PRICE          MOSUNNY   88  40  18 VRB3      30.20F
ST GEORGE      MOSUNNY   86  48  26 CALM      30.01S
KANAB          SUNNY     77  52  41 CALM      30.22F

$$

REGIONAL REPORTS     COLORADO/ARIZONA

CITY           SKY/WX    TMP DP  RH WIND       PRES   REMARKS
CRAIG, CO      MOSUNNY   73  51  46 CALM      30.26F
GRAND JUNCTION MOSUNNY   82  46  28 SE10      30.14S
RIFLE          SUNNY     73  49  42 W3        30.22F
MONTROSE       MOSUNNY   77  48  35 CALM      30.23F
CORTEZ         SUNNY     77  51  40 W3        30.25S
PAGE, AZ       SUNNY     86  49  27 E5        30.08S
GRAND CANYON   SUNNY     76  50  40 CALM      30.30S
KINGMAN        MOSUNNY   86  52  30 CALM      30.05R
FLAGSTAFF        N/A     72  52  49 CALM      30.33S

$$

REGIONAL REPORTS    NEVADA/IDAHO/WYOMING

CITY           SKY/WX    TMP DP  RH WIND       PRES   REMARKS
LAS VEGAS, NV  CLOUDY    97  53  22 S6        29.88R HX  94
ELY            MOSUNNY   73  49  42 S9        30.28R
ELKO           SUNNY     76  50  40 CALM      30.18F
POCATELLO, ID  SUNNY     73  58  59 CALM      30.14R
BURLEY         SUNNY     75  58  55 E7        30.10S
EVANSTON, WY   MOSUNNY   68  48  48 CALM      30.33F
ROCK SPRINGS   SUNNY     72  45  37 S5        30.29S
KEMMERER       MOSUNNY   70  45  40 SW5       30.35S

$$


USA.gov is the U.S. government's official web portal to all federal, state and local government web resources and services.